This is the latest recevied weather packets stored in our database for station/object KB1RMA-4. If no packets are shown the sender has not sent any weather packets the latest 10 day(s).
| Time | Temp. | Humidity | Pressure | Rain* | Wind** | Luminosity | Snow |
|---|---|---|---|---|---|---|---|
| 1787707551 | 20° C | 71% | 1014.5 hPa | 0 mm | - | 0 W/m² | - |
| 1787707247 | 20° C | 71% | 1014.4 hPa | 0 mm | - | 0 W/m² | - |
| 1787706942 | 20.56° C | 70% | 1014.3 hPa | 0 mm | - | 0 W/m² | - |
| 1787706642 | 20.56° C | 69% | 1014.5 hPa | 0 mm | - | 0 W/m² | - |
| 1787706338 | 20.56° C | 69% | 1014.5 hPa | 0 mm | - | 0 W/m² | - |
| 1787706033 | 20.56° C | 69% | 1014.3 hPa | 0 mm | - | 0 W/m² | - |
| 1787705727 | 20.56° C | 69% | 1014.5 hPa | 0 mm | - | 0 W/m² | - |
| 1787705424 | 20.56° C | 69% | 1014.5 hPa | 0 mm | - | 0 W/m² | - |
| 1787705119 | 20.56° C | 69% | 1013.9 hPa | 0 mm | - | 0 W/m² | - |
| 1787704814 | 20.56° C | 67% | 1014.2 hPa | 0 mm | - | 0 W/m² | - |
| 1787704510 | 20.56° C | 67% | 1013.9 hPa | 0 mm | - | 0 W/m² | - |
| 1787704210 | 21.11° C | 66% | 1013.9 hPa | 0 mm | - | 0 W/m² | - |
| 1787703910 | 21.11° C | 66% | 1014 hPa | 0 mm | - | 0 W/m² | - |
| 1787703606 | 21.11° C | 66% | 1013.7 hPa | 0 mm | - | 0 W/m² | - |
| 1787703306 | 21.11° C | 65% | 1013.7 hPa | 0 mm | - | 0 W/m² | - |
| 1787703001 | 21.67° C | 65% | 1013.5 hPa | 0 mm | - | 0 W/m² | - |
| 1787702697 | 21.11° C | 65% | 1013.7 hPa | 0 mm | - | 0 W/m² | - |
| 1787702396 | 21.11° C | 65% | 1013.5 hPa | 0 mm | - | 0 W/m² | - |
| 1787702091 | 21.67° C | 64% | 1013.4 hPa | 0 mm | - | 0 W/m² | - |
| 1787701788 | 21.67° C | 63% | 1013.3 hPa | 0 mm | - | 0 W/m² | - |
| 1787701488 | 21.67° C | 62% | 1013.2 hPa | 0 mm | - | 0 W/m² | - |
| 1787701183 | 22.22° C | 61% | 1013.2 hPa | 0 mm | - | 0 W/m² | - |
| 1787700880 | 22.22° C | 60% | 1013.1 hPa | 0 mm | - | 0 W/m² | - |
| 1787700575 | 22.78° C | 59% | 1013 hPa | 0 mm | - | 1 W/m² | - |
| 1787700271 | 22.78° C | 59% | 1013.1 hPa | 0 mm | - | 4 W/m² | - |
* Rain latest hour (hover to see other rain measurements)
** Current wind speed in m/s (hover to see current wind gust speed)